Time,TemperatureF,DewpointF,PressureIn,WindDirection,WindDirectionDegrees,WindSpeedMPH,WindSpeedGustMPH,Humidity,HourlyPrecipIn,Conditions,Clouds,dailyrainin,SoftwareType,DateUTC
2013-02-15 00:01:00,37.8,-4.8,27.20,North,0,0.0,0.0,16,0.00,NA,NA,-99.99,wxupload 3.5,2013-02-15 05:01:00,
2013-02-15 00:03:00,37.8,-4.8,27.20,North,0,0.0,0.0,16,0.00,NA,NA,-99.99,wxupload 3.5,2013-02-15 05:03:00,
2013-02-15 00:09:00,37.8,-4.8,27.20,North,0,0.0,0.0,16,0.00,NA,NA,-99.99,wxupload 3.5,2013-02-15 05:09:00,
2013-02-15 00:11:00,37.8,-4.8,27.20,North,0,0.0,0.0,16,0.00,NA,NA,-99.99,wxupload 3.5,2013-02-15 05:11:00,
2013-02-15 00:17:00,37.8,-4.8,27.20,North,0,0.0,0.0,16,0.00,NA,NA,-99.99,wxupload 3.5,2013-02-15 05:17:00,
2013-02-15 00:19:00,37.8,-4.8,27.20,North,0,0.0,0.0,16,0.00,NA,NA,-99.99,wxupload 3.5,2013-02-15 05:19:00,
2013-02-15 00:25:00,37.9,-4.6,27.20,North,0,0.0,0.0,16,0.00,NA,NA,-99.99,wxupload 3.5,2013-02-15 05:25:00,
2013-02-15 00:32:00,37.9,-4.6,27.20,North,0,0.0,0.0,16,0.00,NA,NA,-99.99,wxupload 3.5,2013-02-15 05:32:00,
2013-02-15 00:37:00,37.9,-4.6,27.20,North,0,0.0,0.0,16,0.00,NA,NA,-99.99,wxupload 3.5,2013-02-15 05:37:00,
2013-02-15 00:43:00,38.1,-4.5,27.20,North,0,0.0,0.0,16,0.00,NA,NA,-99.99,wxupload 3.5,2013-02-15 05:43:00,
2013-02-15 00:49:00,38.3,-4.3,27.20,North,0,0.0,0.0,16,0.00,NA,NA,-99.99,wxupload 3.5,2013-02-15 05:49:00,
2013-02-15 00:55:00,38.5,-4.2,27.20,North,0,0.0,0.0,16,0.00,NA,NA,-99.99,wxupload 3.5,2013-02-15 05:55:00,
2013-02-15 01:01:00,38.7,-4.0,27.20,North,0,0.0,0.0,16,0.00,NA,NA,-99.99,wxupload 3.5,2013-02-15 06:01:00,
2013-02-15 01:07:00,38.7,-4.0,27.20,North,0,0.0,0.0,16,0.00,NA,NA,-99.99,wxupload 3.5,2013-02-15 06:07:00,
2013-02-15 01:13:00,38.7,-4.0,27.20,North,0,0.0,0.0,16,0.00,NA,NA,-99.99,wxupload 3.5,2013-02-15 06:13:00,
2013-02-15 01:19:00,38.7,-4.0,27.20,North,0,0.0,0.0,16,0.00,NA,NA,-99.99,wxupload 3.5,2013-02-15 06:19:00,
2013-02-15 01:26:00,38.7,-4.0,27.20,North,0,0.0,0.0,16,0.00,NA,NA,-99.99,wxupload 3.5,2013-02-15 06:26:00,
2013-02-15 01:31:00,38.8,-3.9,27.20,North,0,0.0,0.0,16,0.00,NA,NA,-99.99,wxupload 3.5,2013-02-15 06:31:00,
2013-02-15 01:37:00,38.7,-4.0,27.20,North,0,0.0,0.0,16,0.00,NA,NA,-99.99,wxupload 3.5,2013-02-15 06:37:00,
2013-02-15 01:43:00,38.7,-4.0,27.20,North,0,0.0,0.0,16,0.00,NA,NA,-99.99,wxupload 3.5,2013-02-15 06:43:00,
2013-02-15 01:49:00,38.7,-4.0,27.20,North,0,0.0,0.0,16,0.00,NA,NA,-99.99,wxupload 3.5,2013-02-15 06:49:00,
2013-02-15 01:56:00,38.5,-4.2,27.20,North,0,0.0,0.0,16,0.00,NA,NA,-99.99,wxupload 3.5,2013-02-15 06:56:00,
2013-02-15 02:01:00,38.5,-4.2,27.20,North,0,0.0,0.0,16,0.00,NA,NA,-99.99,wxupload 3.5,2013-02-15 07:01:00,
2013-02-15 02:07:00,38.7,-4.0,27.20,North,0,0.0,0.0,16,0.00,NA,NA,-99.99,wxupload 3.5,2013-02-15 07:07:00,
2013-02-15 02:13:00,38.7,-4.0,27.20,North,0,0.0,0.0,16,0.00,NA,NA,-99.99,wxupload 3.5,2013-02-15 07:13:00,
2013-02-15 02:20:00,38.5,-4.2,27.20,North,0,0.0,0.0,16,0.00,NA,NA,-99.99,wxupload 3.5,2013-02-15 07:20:00,
2013-02-15 02:25:00,38.5,-4.2,27.20,North,0,0.0,0.0,16,0.00,NA,NA,-99.99,wxupload 3.5,2013-02-15 07:25:00,
2013-02-15 02:31:00,38.5,-4.2,27.20,North,0,0.0,0.0,16,0.00,NA,NA,-99.99,wxupload 3.5,2013-02-15 07:31:00,
2013-02-15 02:37:00,38.1,-4.5,27.20,North,0,0.0,0.0,16,0.00,NA,NA,-99.99,wxupload 3.5,2013-02-15 07:37:00,
2013-02-15 02:43:00,38.1,-4.5,27.20,North,0,0.0,0.0,16,0.00,NA,NA,-99.99,wxupload 3.5,2013-02-15 07:43:00,
2013-02-15 02:50:00,37.9,-4.6,27.20,North,0,0.0,0.0,16,0.00,NA,NA,-99.99,wxupload 3.5,2013-02-15 07:50:00,
2013-02-15 02:55:00,37.9,-4.6,27.20,North,0,0.0,0.0,16,0.00,NA,NA,-99.99,wxupload 3.5,2013-02-15 07:55:00,
2013-02-15 03:01:00,37.9,-4.6,27.20,North,0,0.0,0.0,16,0.00,NA,NA,-99.99,wxupload 3.5,2013-02-15 08:01:00,
2013-02-15 03:07:00,37.8,-4.8,27.20,North,0,0.0,0.0,16,0.00,NA,NA,-99.99,wxupload 3.5,2013-02-15 08:07:00,
2013-02-15 03:14:00,37.8,-4.8,27.20,North,0,0.0,0.0,16,0.00,NA,NA,-99.99,wxupload 3.5,2013-02-15 08:14:00,
2013-02-15 03:19:00,37.8,-4.8,27.23,North,0,0.0,0.0,16,0.00,NA,NA,-99.99,wxupload 3.5,2013-02-15 08:19:00,
2013-02-15 03:25:00,37.9,-4.6,27.23,North,0,0.0,0.0,16,0.00,NA,NA,-99.99,wxupload 3.5,2013-02-15 08:25:00,
2013-02-15 03:31:00,37.8,-4.8,27.23,North,0,0.0,0.0,16,0.00,NA,NA,-99.99,wxupload 3.5,2013-02-15 08:31:00,
2013-02-15 03:37:00,37.8,-4.8,27.23,North,0,0.0,0.0,16,0.00,NA,NA,-99.99,wxupload 3.5,2013-02-15 08:37:00,
2013-02-15 03:44:00,37.8,-4.8,27.23,North,0,0.0,0.0,16,0.00,NA,NA,-99.99,wxupload 3.5,2013-02-15 08:44:00,
2013-02-15 03:49:00,37.8,-4.8,27.23,North,0,0.0,0.0,16,0.00,NA,NA,-99.99,wxupload 3.5,2013-02-15 08:49:00,
2013-02-15 03:55:00,37.9,-4.6,27.23,North,0,0.0,0.0,16,0.00,NA,NA,-99.99,wxupload 3.5,2013-02-15 08:55:00,
2013-02-15 04:01:00,37.9,-4.6,27.23,North,0,0.0,0.0,16,0.00,NA,NA,-99.99,wxupload 3.5,2013-02-15 09:01:00,
2013-02-15 04:07:00,37.9,-4.6,27.23,North,0,0.0,0.0,16,0.00,NA,NA,-99.99,wxupload 3.5,2013-02-15 09:07:00,
2013-02-15 04:13:00,37.8,-4.8,27.23,North,0,0.0,0.0,16,0.00,NA,NA,-99.99,wxupload 3.5,2013-02-15 09:13:00,
2013-02-15 04:19:00,37.6,-4.9,27.23,North,0,0.0,0.0,16,0.00,NA,NA,-99.99,wxupload 3.5,2013-02-15 09:19:00,
2013-02-15 04:25:00,37.6,-4.9,27.23,North,0,0.0,0.0,16,0.00,NA,NA,-99.99,wxupload 3.5,2013-02-15 09:25:00,
2013-02-15 04:31:00,37.4,-5.1,27.23,North,0,0.0,0.0,16,0.00,NA,NA,-99.99,wxupload 3.5,2013-02-15 09:31:00,
2013-02-15 04:38:00,37.4,-5.1,27.23,North,0,0.0,0.0,16,0.00,NA,NA,-99.99,wxupload 3.5,2013-02-15 09:38:00,
2013-02-15 04:43:00,37.2,-3.9,27.23,North,0,0.0,0.0,17,0.00,NA,NA,-99.99,wxupload 3.5,2013-02-15 09:43:00,
2013-02-15 04:49:00,37.0,-4.1,27.23,North,0,0.0,0.0,17,0.00,NA,NA,-99.99,wxupload 3.5,2013-02-15 09:49:00,
2013-02-15 04:55:00,37.0,-4.1,27.23,North,0,0.0,0.0,17,0.00,NA,NA,-99.99,wxupload 3.5,2013-02-15 09:55:00,
2013-02-15 05:01:00,36.9,-4.2,27.23,North,0,0.0,0.0,17,0.00,NA,NA,-99.99,wxupload 3.5,2013-02-15 10:01:00,
2013-02-15 05:08:00,36.7,-4.4,27.23,North,0,0.0,0.0,17,0.00,NA,NA,-99.99,wxupload 3.5,2013-02-15 10:08:00,
2013-02-15 05:13:00,36.9,-4.2,27.23,North,0,0.0,0.0,17,0.00,NA,NA,-99.99,wxupload 3.5,2013-02-15 10:13:00,
2013-02-15 05:19:00,36.7,-4.4,27.23,North,0,0.0,0.0,17,0.00,NA,NA,-99.99,wxupload 3.5,2013-02-15 10:19:00,
2013-02-15 05:25:00,36.7,-4.4,27.23,North,0,0.0,0.0,17,0.00,NA,NA,-99.99,wxupload 3.5,2013-02-15 10:25:00,
2013-02-15 05:32:00,36.3,-4.7,27.23,North,0,0.0,0.0,17,0.00,NA,NA,-99.99,wxupload 3.5,2013-02-15 10:32:00,
2013-02-15 05:37:00,36.3,-4.7,27.23,North,0,0.0,0.0,17,0.00,NA,NA,-99.99,wxupload 3.5,2013-02-15 10:37:00,
2013-02-15 05:43:00,36.3,-4.7,27.23,North,0,0.0,0.0,17,0.00,NA,NA,-99.99,wxupload 3.5,2013-02-15 10:43:00,
2013-02-15 05:49:00,36.1,-4.8,27.23,North,0,0.0,0.0,17,0.00,NA,NA,-99.99,wxupload 3.5,2013-02-15 10:49:00,
2013-02-15 05:55:00,36.0,-5.0,27.23,North,0,0.0,0.0,17,0.00,NA,NA,-99.99,wxupload 3.5,2013-02-15 10:55:00,
2013-02-15 06:02:00,36.0,-5.0,27.23,North,0,0.0,0.0,17,0.00,NA,NA,-99.99,wxupload 3.5,2013-02-15 11:02:00,
2013-02-15 06:07:00,35.8,-5.1,27.23,North,0,0.0,0.0,17,0.00,NA,NA,-99.99,wxupload 3.5,2013-02-15 11:07:00,
2013-02-15 06:13:00,36.0,-5.0,27.23,North,0,0.0,0.0,17,0.00,NA,NA,-99.99,wxupload 3.5,2013-02-15 11:13:00,
2013-02-15 06:19:00,35.8,-5.1,27.23,North,0,0.0,0.0,17,0.00,NA,NA,-99.99,wxupload 3.5,2013-02-15 11:19:00,
2013-02-15 06:25:00,35.8,-5.1,27.23,North,0,0.0,0.0,17,0.00,NA,NA,-99.99,wxupload 3.5,2013-02-15 11:25:00,
2013-02-15 06:31:00,35.8,-5.1,27.23,North,0,0.0,0.0,17,0.00,NA,NA,-99.99,wxupload 3.5,2013-02-15 11:31:00,
2013-02-15 06:37:00,35.6,-5.3,27.23,North,0,0.0,0.0,17,0.00,NA,NA,-99.99,wxupload 3.5,2013-02-15 11:37:00,
2013-02-15 06:43:00,35.6,-5.3,27.23,North,0,0.0,0.0,17,0.00,NA,NA,-99.99,wxupload 3.5,2013-02-15 11:43:00,
2013-02-15 06:49:00,35.4,-5.4,27.26,North,0,0.0,0.0,17,0.00,NA,NA,-99.99,wxupload 3.5,2013-02-15 11:49:00,
2013-02-15 06:56:00,35.4,-5.4,27.26,North,0,0.0,0.0,17,0.00,NA,NA,-99.99,wxupload 3.5,2013-02-15 11:56:00,
2013-02-15 07:01:00,35.4,-5.4,27.26,North,0,0.0,0.0,17,0.00,NA,NA,-99.99,wxupload 3.5,2013-02-15 12:01:00,
2013-02-15 07:07:00,35.2,-5.6,27.23,North,0,0.0,0.0,17,0.00,NA,NA,-99.99,wxupload 3.5,2013-02-15 12:07:00,
2013-02-15 07:13:00,35.2,-5.6,27.23,North,0,0.0,0.0,17,0.00,NA,NA,-99.99,wxupload 3.5,2013-02-15 12:13:00,
2013-02-15 07:19:00,35.1,-5.8,27.26,North,0,0.0,0.0,17,0.00,NA,NA,-99.99,wxupload 3.5,2013-02-15 12:19:00,
2013-02-15 07:26:00,34.9,-5.9,27.26,North,0,0.0,0.0,17,0.00,NA,NA,-99.99,wxupload 3.5,2013-02-15 12:26:00,
2013-02-15 07:31:00,35.1,-5.8,27.26,North,0,0.0,0.0,17,0.00,NA,NA,-99.99,wxupload 3.5,2013-02-15 12:31:00,
2013-02-15 07:37:00,35.2,-5.6,27.26,North,0,0.0,0.0,17,0.00,NA,NA,-99.99,wxupload 3.5,2013-02-15 12:37:00,
2013-02-15 07:43:00,35.4,-5.4,27.26,North,0,0.0,0.0,17,0.00,NA,NA,-99.99,wxupload 3.5,2013-02-15 12:43:00,
2013-02-15 07:49:00,35.6,-5.3,27.26,North,0,0.0,0.0,17,0.00,NA,NA,-99.99,wxupload 3.5,2013-02-15 12:49:00,
2013-02-15 07:55:00,37.0,-4.1,27.26,North,0,0.0,0.0,17,0.00,NA,NA,-99.99,wxupload 3.5,2013-02-15 12:55:00,
2013-02-15 08:01:00,37.4,-5.1,27.26,North,0,0.0,0.0,16,0.00,NA,NA,-99.99,wxupload 3.5,2013-02-15 13:01:00,
2013-02-15 08:07:00,37.0,-4.1,27.23,North,0,0.0,0.0,17,0.00,NA,NA,-99.99,wxupload 3.5,2013-02-15 13:07:00,
2013-02-15 08:13:00,37.0,-4.1,27.23,North,0,0.0,0.0,17,0.00,NA,NA,-99.99,wxupload 3.5,2013-02-15 13:13:00,
2013-02-15 08:20:00,37.2,-3.9,27.26,North,0,0.0,0.0,17,0.00,NA,NA,-99.99,wxupload 3.5,2013-02-15 13:20:00,
2013-02-15 08:25:00,37.4,-5.1,27.26,North,0,0.0,0.0,16,0.00,NA,NA,-99.99,wxupload 3.5,2013-02-15 13:25:00,
2013-02-15 08:31:00,37.9,-4.6,27.26,North,0,0.0,0.0,16,0.00,NA,NA,-99.99,wxupload 3.5,2013-02-15 13:31:00,
2013-02-15 08:37:00,38.1,-4.5,27.26,North,0,0.0,0.0,16,0.00,NA,NA,-99.99,wxupload 3.5,2013-02-15 13:37:00,
2013-02-15 08:43:00,38.3,-4.3,27.26,North,0,0.0,0.0,16,0.00,NA,NA,-99.99,wxupload 3.5,2013-02-15 13:43:00,
2013-02-15 08:50:00,38.7,-4.0,27.26,North,0,0.0,0.0,16,0.00,NA,NA,-99.99,wxupload 3.5,2013-02-15 13:50:00,
2013-02-15 08:55:00,38.8,-3.9,27.26,North,0,0.0,0.0,16,0.00,NA,NA,-99.99,wxupload 3.5,2013-02-15 13:55:00,
2013-02-15 09:01:00,39.4,-3.4,27.26,North,0,0.0,0.0,16,0.00,NA,NA,-99.99,wxupload 3.5,2013-02-15 14:01:00,
2013-02-15 09:07:00,39.7,-3.1,27.26,North,0,0.0,0.0,16,0.00,NA,NA,-99.99,wxupload 3.5,2013-02-15 14:07:00,
2013-02-15 09:13:00,40.3,-2.7,27.26,North,0,0.0,0.0,16,0.00,NA,NA,-99.99,wxupload 3.5,2013-02-15 14:13:00,
2013-02-15 09:20:00,40.6,-2.4,27.29,North,0,0.0,0.0,16,0.00,NA,NA,-99.99,wxupload 3.5,2013-02-15 14:20:00,
2013-02-15 09:25:00,40.6,-2.4,27.29,North,0,0.0,0.0,16,0.00,NA,NA,-99.99,wxupload 3.5,2013-02-15 14:25:00,
2013-02-15 09:31:00,40.5,-2.5,27.29,North,0,0.0,0.0,16,0.00,NA,NA,-99.99,wxupload 3.5,2013-02-15 14:31:00,
2013-02-15 09:37:00,40.8,-2.2,27.26,North,0,0.0,0.0,16,0.00,NA,NA,-99.99,wxupload 3.5,2013-02-15 14:37:00,
2013-02-15 09:43:00,41.0,-2.1,27.26,North,0,0.0,0.0,16,0.00,NA,NA,-99.99,wxupload 3.5,2013-02-15 14:43:00,
2013-02-15 09:49:00,41.0,-2.1,27.26,North,0,0.0,0.0,16,0.00,NA,NA,-99.99,wxupload 3.5,2013-02-15 14:49:00,
2013-02-15 09:55:00,41.0,-2.1,27.26,North,0,0.0,0.0,16,0.00,NA,NA,-99.99,wxupload 3.5,2013-02-15 14:55:00,
2013-02-15 10:01:00,41.0,-2.1,27.26,North,0,0.0,0.0,16,0.00,NA,NA,-99.99,wxupload 3.5,2013-02-15 15:01:00,
2013-02-15 10:07:00,41.0,-2.1,27.26,North,0,0.0,0.0,16,0.00,NA,NA,-99.99,wxupload 3.5,2013-02-15 15:07:00,
2013-02-15 10:13:00,41.2,-1.9,27.26,North,0,0.0,0.0,16,0.00,NA,NA,-99.99,wxupload 3.5,2013-02-15 15:13:00,
2013-02-15 10:19:00,41.4,-1.8,27.26,North,0,0.0,0.0,16,0.00,NA,NA,-99.99,wxupload 3.5,2013-02-15 15:19:00,
2013-02-15 10:25:00,41.7,-1.5,27.26,North,0,0.0,0.0,16,0.00,NA,NA,-99.99,wxupload 3.5,2013-02-15 15:25:00,
2013-02-15 10:31:00,42.1,-1.2,27.26,North,0,0.0,0.0,16,0.00,NA,NA,-99.99,wxupload 3.5,2013-02-15 15:31:00,
2013-02-15 10:37:00,42.3,-1.0,27.26,North,0,0.0,0.0,16,0.00,NA,NA,-99.99,wxupload 3.5,2013-02-15 15:37:00,
2013-02-15 10:44:00,42.1,-1.2,27.26,North,0,0.0,0.0,16,0.00,NA,NA,-99.99,wxupload 3.5,2013-02-15 15:44:00,
2013-02-15 10:49:00,42.1,-1.2,27.26,North,0,0.0,0.0,16,0.00,NA,NA,-99.99,wxupload 3.5,2013-02-15 15:49:00,
2013-02-15 10:55:00,41.9,-1.3,27.26,North,0,0.0,0.0,16,0.00,NA,NA,-99.99,wxupload 3.5,2013-02-15 15:55:00,
2013-02-15 11:01:00,41.9,-1.3,27.26,North,0,0.0,0.0,16,0.00,NA,NA,-99.99,wxupload 3.5,2013-02-15 16:01:00,
2013-02-15 11:07:00,42.1,-1.2,27.26,North,0,0.0,0.0,16,0.00,NA,NA,-99.99,wxupload 3.5,2013-02-15 16:07:00,
2013-02-15 11:14:00,42.3,-1.0,27.26,North,0,0.0,0.0,16,0.00,NA,NA,-99.99,wxupload 3.5,2013-02-15 16:14:00,
2013-02-15 11:19:00,42.3,-1.0,27.26,North,0,0.0,0.0,16,0.00,NA,NA,-99.99,wxupload 3.5,2013-02-15 16:19:00,
2013-02-15 11:25:00,42.4,-0.9,27.26,North,0,0.0,0.0,16,0.00,NA,NA,-99.99,wxupload 3.5,2013-02-15 16:25:00,
2013-02-15 11:31:00,42.8,-2.0,27.26,North,0,0.0,0.0,15,0.00,NA,NA,-99.99,wxupload 3.5,2013-02-15 16:31:00,
2013-02-15 11:37:00,42.8,-2.0,27.26,North,0,0.0,0.0,15,0.00,NA,NA,-99.99,wxupload 3.5,2013-02-15 16:37:00,
2013-02-15 11:43:00,42.6,-0.7,27.26,North,0,0.0,0.0,16,0.00,NA,NA,-99.99,wxupload 3.5,2013-02-15 16:43:00,
2013-02-15 11:49:00,43.2,-1.7,27.23,North,0,0.0,0.0,15,0.00,NA,NA,-99.99,wxupload 3.5,2013-02-15 16:49:00,
2013-02-15 11:55:00,43.9,-1.1,27.23,North,0,0.0,0.0,15,0.00,NA,NA,-99.99,wxupload 3.5,2013-02-15 16:55:00,
2013-02-15 12:01:00,44.2,-0.8,27.23,North,0,0.0,0.0,15,0.00,NA,NA,-99.99,wxupload 3.5,2013-02-15 17:01:00,
2013-02-15 12:07:00,44.6,-0.5,27.23,North,0,0.0,0.0,15,0.00,NA,NA,-99.99,wxupload 3.5,2013-02-15 17:07:00,
2013-02-15 12:13:00,44.4,-0.6,27.23,North,0,0.0,0.0,15,0.00,NA,NA,-99.99,wxupload 3.5,2013-02-15 17:13:00,
2013-02-15 12:19:00,44.6,-0.5,27.23,North,0,0.0,0.0,15,0.00,NA,NA,-99.99,wxupload 3.5,2013-02-15 17:19:00,
2013-02-15 12:25:00,45.3,0.1,27.23,North,0,0.0,0.0,15,0.00,NA,NA,-99.99,wxupload 3.5,2013-02-15 17:25:00,
2013-02-15 12:31:00,45.9,0.6,27.23,North,0,0.0,0.0,15,0.00,NA,NA,-99.99,wxupload 3.5,2013-02-15 17:31:00,
2013-02-15 12:38:00,45.5,0.3,27.23,North,0,0.0,0.0,15,0.00,NA,NA,-99.99,wxupload 3.5,2013-02-15 17:38:00,
2013-02-15 12:43:00,45.1,0.0,27.23,North,0,0.0,0.0,15,0.00,NA,NA,-99.99,wxupload 3.5,2013-02-15 17:43:00,
2013-02-15 12:49:00,44.8,-0.3,27.23,North,0,0.0,0.0,15,0.00,NA,NA,-99.99,wxupload 3.5,2013-02-15 17:49:00,
2013-02-15 12:55:00,44.8,-0.3,27.23,North,0,0.0,0.0,15,0.00,NA,NA,-99.99,wxupload 3.5,2013-02-15 17:55:00,
2013-02-15 13:01:00,44.6,-0.5,27.23,North,0,0.0,0.0,15,0.00,NA,NA,-99.99,wxupload 3.5,2013-02-15 18:01:00,
2013-02-15 13:08:00,44.6,-0.5,27.23,North,0,0.0,0.0,15,0.00,NA,NA,-99.99,wxupload 3.5,2013-02-15 18:08:00,
2013-02-15 13:13:00,44.4,-0.6,27.23,North,0,0.0,0.0,15,0.00,NA,NA,-99.99,wxupload 3.5,2013-02-15 18:13:00,
2013-02-15 13:19:00,44.2,-0.8,27.23,North,0,0.0,0.0,15,0.00,NA,NA,-99.99,wxupload 3.5,2013-02-15 18:19:00,
2013-02-15 13:25:00,43.7,-1.2,27.23,North,0,0.0,0.0,15,0.00,NA,NA,-99.99,wxupload 3.5,2013-02-15 18:25:00,
2013-02-15 13:31:00,43.5,-1.4,27.23,North,0,0.0,0.0,15,0.00,NA,NA,-99.99,wxupload 3.5,2013-02-15 18:31:00,
2013-02-15 13:38:00,43.3,-1.5,27.23,North,0,0.0,0.0,15,0.00,NA,NA,-99.99,wxupload 3.5,2013-02-15 18:38:00,
2013-02-15 13:43:00,42.8,-2.0,27.23,North,0,0.0,0.0,15,0.00,NA,NA,-99.99,wxupload 3.5,2013-02-15 18:43:00,
2013-02-15 13:49:00,42.4,-0.9,27.23,North,0,0.0,0.0,16,0.00,NA,NA,-99.99,wxupload 3.5,2013-02-15 18:49:00,
2013-02-15 13:55:00,42.3,-1.0,27.23,North,0,0.0,0.0,16,0.00,NA,NA,-99.99,wxupload 3.5,2013-02-15 18:55:00,
2013-02-15 14:01:00,42.3,-1.0,27.23,North,0,0.0,0.0,16,0.00,NA,NA,-99.99,wxupload 3.5,2013-02-15 19:01:00,
2013-02-15 14:08:00,42.1,-1.2,27.20,North,0,0.0,0.0,16,0.00,NA,NA,-99.99,wxupload 3.5,2013-02-15 19:08:00,
2013-02-15 14:13:00,41.9,-1.3,27.20,North,0,0.0,0.0,16,0.00,NA,NA,-99.99,wxupload 3.5,2013-02-15 19:13:00,
2013-02-15 14:19:00,41.4,-1.8,27.20,North,0,0.0,0.0,16,0.00,NA,NA,-99.99,wxupload 3.5,2013-02-15 19:19:00,
2013-02-15 14:25:00,40.6,-2.4,27.20,North,0,0.0,0.0,16,0.00,NA,NA,-99.99,wxupload 3.5,2013-02-15 19:25:00,
2013-02-15 14:31:00,40.3,-2.7,27.20,North,0,0.0,0.0,16,0.00,NA,NA,-99.99,wxupload 3.5,2013-02-15 19:31:00,
2013-02-15 14:38:00,40.1,-2.8,27.20,North,0,0.0,0.0,16,0.00,NA,NA,-99.99,wxupload 3.5,2013-02-15 19:38:00,
2013-02-15 14:43:00,40.1,-2.8,27.20,North,0,0.0,0.0,16,0.00,NA,NA,-99.99,wxupload 3.5,2013-02-15 19:43:00,
2013-02-15 14:49:00,39.7,-3.1,27.20,North,0,0.0,0.0,16,0.00,NA,NA,-99.99,wxupload 3.5,2013-02-15 19:49:00,
2013-02-15 14:55:00,39.7,-3.1,27.20,North,0,0.0,0.0,16,0.00,NA,NA,-99.99,wxupload 3.5,2013-02-15 19:55:00,
2013-02-15 15:01:00,39.4,-3.4,27.20,North,0,0.0,0.0,16,0.00,NA,NA,-99.99,wxupload 3.5,2013-02-15 20:01:00,
2013-02-15 15:08:00,38.7,-4.0,27.20,North,0,0.0,0.0,16,0.00,NA,NA,-99.99,wxupload 3.5,2013-02-15 20:08:00,
2013-02-15 15:13:00,38.3,-4.3,27.20,North,0,0.0,0.0,16,0.00,NA,NA,-99.99,wxupload 3.5,2013-02-15 20:13:00,
2013-02-15 15:19:00,37.4,-5.1,27.20,North,0,0.0,0.0,16,0.00,NA,NA,-99.99,wxupload 3.5,2013-02-15 20:19:00,
2013-02-15 15:25:00,37.0,-4.1,27.20,North,0,0.0,0.0,17,0.00,NA,NA,-99.99,wxupload 3.5,2013-02-15 20:25:00,
2013-02-15 15:31:00,37.0,-4.1,27.20,North,0,0.0,0.0,17,0.00,NA,NA,-99.99,wxupload 3.5,2013-02-15 20:31:00,
2013-02-15 15:38:00,36.9,-4.2,27.20,North,0,0.0,0.0,17,0.00,NA,NA,-99.99,wxupload 3.5,2013-02-15 20:38:00,
2013-02-15 15:43:00,36.7,-4.4,27.20,North,0,0.0,0.0,17,0.00,NA,NA,-99.99,wxupload 3.5,2013-02-15 20:43:00,
2013-02-15 15:49:00,36.7,-4.4,27.20,North,0,0.0,0.0,17,0.00,NA,NA,-99.99,wxupload 3.5,2013-02-15 20:49:00,
2013-02-15 15:55:00,36.7,-4.4,27.20,North,0,0.0,0.0,17,0.00,NA,NA,-99.99,wxupload 3.5,2013-02-15 20:55:00,
2013-02-15 16:01:00,36.5,-4.5,27.20,North,0,0.0,0.0,17,0.00,NA,NA,-99.99,wxupload 3.5,2013-02-15 21:01:00,
2013-02-15 16:08:00,36.3,-4.7,27.20,North,0,0.0,0.0,17,0.00,NA,NA,-99.99,wxupload 3.5,2013-02-15 21:08:00,
2013-02-15 16:13:00,35.8,-2.8,27.20,North,0,0.0,0.0,19,0.00,NA,NA,-99.99,wxupload 3.5,2013-02-15 21:13:00,
2013-02-15 16:19:00,35.4,-2.0,27.20,North,0,0.0,0.0,20,0.00,NA,NA,-99.99,wxupload 3.5,2013-02-15 21:19:00,
2013-02-15 16:25:00,35.1,-2.3,27.20,North,0,0.0,0.0,20,0.00,NA,NA,-99.99,wxupload 3.5,2013-02-15 21:25:00,
2013-02-15 16:31:00,34.9,-0.4,27.20,North,0,0.0,0.0,22,0.00,NA,NA,-99.99,wxupload 3.5,2013-02-15 21:31:00,
2013-02-15 16:38:00,34.7,-0.5,27.20,North,0,0.0,0.0,22,0.00,NA,NA,-99.99,wxupload 3.5,2013-02-15 21:38:00,
2013-02-15 16:43:00,34.3,-0.9,27.20,North,0,0.0,0.0,22,0.00,NA,NA,-99.99,wxupload 3.5,2013-02-15 21:43:00,
2013-02-15 16:49:00,34.3,1.9,27.20,North,0,0.0,0.0,25,0.00,NA,NA,-99.99,wxupload 3.5,2013-02-15 21:49:00,
2013-02-15 16:55:00,34.2,3.4,27.20,North,0,0.0,0.0,27,0.00,NA,NA,-99.99,wxupload 3.5,2013-02-15 21:55:00,
2013-02-15 17:01:00,33.8,3.1,27.20,North,0,0.0,0.0,27,0.00,NA,NA,-99.99,wxupload 3.5,2013-02-15 22:01:00,
2013-02-15 17:08:00,33.6,3.8,27.20,North,0,0.0,0.0,28,0.00,NA,NA,-99.99,wxupload 3.5,2013-02-15 22:08:00,
2013-02-15 17:13:00,33.6,5.3,27.20,North,0,0.0,0.0,30,0.00,NA,NA,-99.99,wxupload 3.5,2013-02-15 22:13:00,
2013-02-15 17:19:00,33.4,5.1,27.20,North,0,0.0,0.0,30,0.00,NA,NA,-99.99,wxupload 3.5,2013-02-15 22:19:00,
2013-02-15 17:25:00,33.1,4.8,27.20,North,0,0.0,0.0,30,0.00,NA,NA,-99.99,wxupload 3.5,2013-02-15 22:25:00,
2013-02-15 17:31:00,32.9,5.4,27.20,North,0,0.0,0.0,31,0.00,NA,NA,-99.99,wxupload 3.5,2013-02-15 22:31:00,
2013-02-15 17:38:00,32.7,6.6,27.20,North,0,0.0,0.0,33,0.00,NA,NA,-99.99,wxupload 3.5,2013-02-15 22:38:00,
2013-02-15 17:43:00,32.5,7.1,27.20,North,0,0.0,0.0,34,0.00,NA,NA,-99.99,wxupload 3.5,2013-02-15 22:43:00,
2013-02-15 17:49:00,32.5,8.4,27.20,North,0,0.0,0.0,36,0.00,NA,NA,-99.99,wxupload 3.5,2013-02-15 22:49:00,
2013-02-15 17:55:00,32.2,8.7,27.20,North,0,0.0,0.0,37,0.00,NA,NA,-99.99,wxupload 3.5,2013-02-15 22:55:00,
2013-02-15 18:01:00,32.2,9.9,27.20,North,0,0.0,0.0,39,0.00,NA,NA,-99.99,wxupload 3.5,2013-02-15 23:01:00,
2013-02-15 18:08:00,32.0,10.3,27.20,North,0,0.0,0.0,40,0.00,NA,NA,-99.99,wxupload 3.5,2013-02-15 23:08:00,
2013-02-15 18:13:00,32.0,10.8,27.20,North,0,0.0,0.0,41,0.00,NA,NA,-99.99,wxupload 3.5,2013-02-15 23:13:00,
2013-02-15 18:19:00,32.0,10.8,27.20,North,0,0.0,0.0,41,0.00,NA,NA,-99.99,wxupload 3.5,2013-02-15 23:19:00,
2013-02-15 18:25:00,32.0,10.8,27.20,North,0,0.0,0.0,41,0.00,NA,NA,-99.99,wxupload 3.5,2013-02-15 23:25:00,
2013-02-15 18:31:00,32.2,11.0,27.20,North,0,0.0,0.0,41,0.00,NA,NA,-99.99,wxupload 3.5,2013-02-15 23:31:00,
2013-02-15 18:38:00,32.2,11.6,27.20,North,0,0.0,0.0,42,0.00,NA,NA,-99.99,wxupload 3.5,2013-02-15 23:38:00,
2013-02-15 18:43:00,32.2,11.6,27.20,North,0,0.0,0.0,42,0.00,NA,NA,-99.99,wxupload 3.5,2013-02-15 23:43:00,
2013-02-15 18:49:00,32.2,11.6,27.23,North,0,0.0,0.0,42,0.00,NA,NA,-99.99,wxupload 3.5,2013-02-15 23:49:00,
2013-02-15 18:55:00,32.2,11.6,27.23,North,0,0.0,0.0,42,0.00,NA,NA,-99.99,wxupload 3.5,2013-02-15 23:55:00,
2013-02-15 19:01:00,32.2,11.6,27.23,North,0,0.0,0.0,42,0.00,NA,NA,-99.99,wxupload 3.5,2013-02-16 00:01:00,
2013-02-15 19:08:00,32.0,11.4,27.23,North,0,0.0,0.0,42,0.00,NA,NA,-99.99,wxupload 3.5,2013-02-16 00:08:00,
2013-02-15 19:13:00,32.0,11.4,27.23,North,0,0.0,0.0,42,0.00,NA,NA,-99.99,wxupload 3.5,2013-02-16 00:13:00,
2013-02-15 19:19:00,32.0,11.4,27.23,North,0,0.0,0.0,42,0.00,NA,NA,-99.99,wxupload 3.5,2013-02-16 00:19:00,
2013-02-15 19:25:00,32.0,11.4,27.23,North,0,0.0,0.0,42,0.00,NA,NA,-99.99,wxupload 3.5,2013-02-16 00:25:00,
2013-02-15 19:31:00,32.2,11.6,27.23,North,0,0.0,0.0,42,0.00,NA,NA,-99.99,wxupload 3.5,2013-02-16 00:31:00,
2013-02-15 19:38:00,32.0,11.4,27.23,North,0,0.0,0.0,42,0.00,NA,NA,-99.99,wxupload 3.5,2013-02-16 00:38:00,
2013-02-15 19:43:00,32.0,11.4,27.23,North,0,0.0,0.0,42,0.00,NA,NA,-99.99,wxupload 3.5,2013-02-16 00:43:00,
2013-02-15 19:49:00,32.0,11.4,27.23,North,0,0.0,0.0,42,0.00,NA,NA,-99.99,wxupload 3.5,2013-02-16 00:49:00,
2013-02-15 19:55:00,32.0,11.4,27.23,North,0,0.0,0.0,42,0.00,NA,NA,-99.99,wxupload 3.5,2013-02-16 00:55:00,
2013-02-15 20:01:00,32.0,11.4,27.23,North,0,0.0,0.0,42,0.00,NA,NA,-99.99,wxupload 3.5,2013-02-16 01:01:00,
2013-02-15 20:08:00,32.0,11.4,27.23,North,0,0.0,0.0,42,0.00,NA,NA,-99.99,wxupload 3.5,2013-02-16 01:08:00,
2013-02-15 20:13:00,32.0,11.4,27.23,North,0,0.0,0.0,42,0.00,NA,NA,-99.99,wxupload 3.5,2013-02-16 01:13:00,
2013-02-15 20:19:00,32.0,11.4,27.23,North,0,0.0,0.0,42,0.00,NA,NA,-99.99,wxupload 3.5,2013-02-16 01:19:00,
2013-02-15 20:25:00,31.8,10.7,27.23,North,0,0.0,0.0,41,0.00,NA,NA,-99.99,wxupload 3.5,2013-02-16 01:25:00,
2013-02-15 20:31:00,31.8,10.7,27.23,North,0,0.0,0.0,41,0.00,NA,NA,-99.99,wxupload 3.5,2013-02-16 01:31:00,
2013-02-15 20:38:00,32.0,10.3,27.23,North,0,0.0,0.0,40,0.00,NA,NA,-99.99,wxupload 3.5,2013-02-16 01:38:00,
2013-02-15 20:43:00,31.8,10.1,27.23,North,0,0.0,0.0,40,0.00,NA,NA,-99.99,wxupload 3.5,2013-02-16 01:43:00,
2013-02-15 20:49:00,31.8,10.1,27.23,North,0,0.0,0.0,40,0.00,NA,NA,-99.99,wxupload 3.5,2013-02-16 01:49:00,
2013-02-15 20:55:00,31.8,10.1,27.23,North,0,0.0,0.0,40,0.00,NA,NA,-99.99,wxupload 3.5,2013-02-16 01:55:00,
2013-02-15 21:01:00,31.8,10.1,27.23,North,0,0.0,0.0,40,0.00,NA,NA,-99.99,wxupload 3.5,2013-02-16 02:01:00,
2013-02-15 21:07:00,31.8,10.1,27.23,North,0,0.0,0.0,40,0.00,NA,NA,-99.99,wxupload 3.5,2013-02-16 02:07:00,
2013-02-15 21:13:00,31.8,10.1,27.23,North,0,0.0,0.0,40,0.00,NA,NA,-99.99,wxupload 3.5,2013-02-16 02:13:00,
2013-02-15 21:19:00,31.6,8.8,27.23,North,0,0.0,0.0,38,0.00,NA,NA,-99.99,wxupload 3.5,2013-02-16 02:19:00,
2013-02-15 21:25:00,31.6,9.4,27.23,North,0,0.0,0.0,39,0.00,NA,NA,-99.99,wxupload 3.5,2013-02-16 02:25:00,
2013-02-15 21:31:00,31.6,9.4,27.23,North,0,0.0,0.0,39,0.00,NA,NA,-99.99,wxupload 3.5,2013-02-16 02:31:00,
2013-02-15 21:37:00,31.5,9.8,27.23,North,0,0.0,0.0,40,0.00,NA,NA,-99.99,wxupload 3.5,2013-02-16 02:37:00,
2013-02-15 21:43:00,31.5,9.8,27.23,North,0,0.0,0.0,40,0.00,NA,NA,-99.99,wxupload 3.5,2013-02-16 02:43:00,
2013-02-15 21:49:00,31.3,9.1,27.23,North,0,0.0,0.0,39,0.00,NA,NA,-99.99,wxupload 3.5,2013-02-16 02:49:00,
2013-02-15 21:55:00,31.3,8.5,27.23,North,0,0.0,0.0,38,0.00,NA,NA,-99.99,wxupload 3.5,2013-02-16 02:55:00,
2013-02-15 22:01:00,31.1,8.3,27.23,North,0,0.0,0.0,38,0.00,NA,NA,-99.99,wxupload 3.5,2013-02-16 03:01:00,
2013-02-15 22:07:00,30.9,7.5,27.23,North,0,0.0,0.0,37,0.00,NA,NA,-99.99,wxupload 3.5,2013-02-16 03:07:00,
2013-02-15 22:13:00,30.7,6.1,27.23,North,0,0.0,0.0,35,0.00,NA,NA,-99.99,wxupload 3.5,2013-02-16 03:13:00,
2013-02-15 22:19:00,30.4,4.5,27.23,North,0,0.0,0.0,33,0.00,NA,NA,-99.99,wxupload 3.5,2013-02-16 03:19:00,
2013-02-15 22:25:00,30.2,4.4,27.23,North,0,0.0,0.0,33,0.00,NA,NA,-99.99,wxupload 3.5,2013-02-16 03:25:00,
2013-02-15 22:31:00,30.2,3.7,27.23,North,0,0.0,0.0,32,0.00,NA,NA,-99.99,wxupload 3.5,2013-02-16 03:31:00,
2013-02-15 22:37:00,30.2,4.4,27.23,North,0,0.0,0.0,33,0.00,NA,NA,-99.99,wxupload 3.5,2013-02-16 03:37:00,
2013-02-15 22:44:00,30.2,4.4,27.23,North,0,0.0,0.0,33,0.00,NA,NA,-99.99,wxupload 3.5,2013-02-16 03:44:00,
2013-02-15 22:49:00,30.2,3.7,27.23,North,0,0.0,0.0,32,0.00,NA,NA,-99.99,wxupload 3.5,2013-02-16 03:49:00,
2013-02-15 22:55:00,30.2,3.7,27.23,North,0,0.0,0.0,32,0.00,NA,NA,-99.99,wxupload 3.5,2013-02-16 03:55:00,
2013-02-15 23:01:00,30.2,3.7,27.23,North,0,0.0,0.0,32,0.00,NA,NA,-99.99,wxupload 3.5,2013-02-16 04:01:00,
2013-02-15 23:07:00,30.2,3.7,27.20,North,0,0.0,0.0,32,0.00,NA,NA,-99.99,wxupload 3.5,2013-02-16 04:07:00,
2013-02-15 23:14:00,30.0,2.8,27.20,North,0,0.0,0.0,31,0.00,NA,NA,-99.99,wxupload 3.5,2013-02-16 04:14:00,
2013-02-15 23:19:00,29.8,2.7,27.23,North,0,0.0,0.0,31,0.00,NA,NA,-99.99,wxupload 3.5,2013-02-16 04:19:00,
2013-02-15 23:25:00,29.8,2.7,27.23,North,0,0.0,0.0,31,0.00,NA,NA,-99.99,wxupload 3.5,2013-02-16 04:25:00,
2013-02-15 23:31:00,29.7,2.5,27.23,North,0,0.0,0.0,31,0.00,NA,NA,-99.99,wxupload 3.5,2013-02-16 04:31:00,
2013-02-15 23:37:00,29.7,2.5,27.23,North,0,0.0,0.0,31,0.00,NA,NA,-99.99,wxupload 3.5,2013-02-16 04:37:00,
2013-02-15 23:44:00,29.7,2.5,27.23,North,0,0.0,0.0,31,0.00,NA,NA,-99.99,wxupload 3.5,2013-02-16 04:44:00,
2013-02-15 23:49:00,29.5,1.6,27.20,North,0,0.0,0.0,30,0.00,NA,NA,-99.99,wxupload 3.5,2013-02-16 04:49:00,
2013-02-15 23:55:00,29.5,1.6,27.20,North,0,0.0,0.0,30,0.00,NA,NA,-99.99,wxupload 3.5,2013-02-16 04:55:00,